Location: *
(11.6050°N, 76.0830°E)
Time: 06:01:53
(UTC+00:00)

Daily predictions for brighter satellites

Satellite Brightness Start Highest point End
(mag) Time Altitude Azimuth Time Altitude Azimuth Time Altitude Azimuth
H-2A R/B 2.8 12:53:32 10° S 12:57:19 86° WSW 13:01:10 10° NNW
GPS 2-04 Rocket1 3.9 12:54:16 10° WNW 12:57:22 34° SW 13:00:33 10° SSE
deb Ariane 3.3 12:58:02 10° WSW 13:00:16 39° S 13:04:50 10° E
BREEZE-M DEB (TANK) 3.1 12:57:45 10° NW 13:00:23 79° SW 13:07:23 10° SE
Cosmos 292 Rocket 3.8 12:56:11 10° S 13:00:50 56° ESE 13:05:28 10° NNE
Cosmos 1271 Rocket 4.3 12:59:09 10° NE 13:01:38 16° E 13:04:08 10° ESE
Cosmos 921 Rocket 3.4 13:01:10 10° SSW 13:05:38 75° W 13:10:08 10° N
Cosmos 1726 2.2 13:06:42 10° S 13:10:16 49° E 13:13:49 10° NNE
Meteor 1-16 Rocket 4.2 13:04:57 10° S 13:10:46 81° E 13:16:24 10° N
Sylda 5 3.9 13:08:52 10° WSW 13:11:37 20° S 13:14:33 10° SE
ISS -3.8 13:11:46 10° NNW 13:15:02 62° NE 13:18:18 10° SE
USA 238 DEB 3.9 13:08:56 10° S 13:15:15 47° ESE 13:21:35 10° NE
USA 238 3.9 13:09:03 10° S 13:15:21 47° ESE 13:21:41 10° NE
DMSP B5D1-3 4.5 13:10:32 10° NNE 13:15:38 69° ESE 13:20:45 10° S
Cosmos 1626 2.4 13:16:28 10° N 13:20:08 70° W 13:23:49 10° S
Cosmos 1356 3.3 13:19:53 10° S 13:23:18 88° E 13:26:44 10° N
Cosmos 1943 4.2 13:18:20 10° NNW 13:23:43 50° WSW 13:29:07 10° S
CZ-4 R/B 1.4 13:21:11 10° SSE 13:25:06 54° ENE 13:29:06 10° N
GOES 2 Rocket 3.0 13:22:56 10° WNW 13:27:06 82° SSW 13:31:07 14° ESE
Cosmos 2278 Rocket 2.1 13:22:33 10° S 13:28:10 71° ESE 13:33:48 10° NNE
Meteor 2-10 4.0 13:23:00 10° S 13:28:20 88° W 13:33:29 10° N
Cosmos 1486 Rocket 4.0 13:23:21 10° N 13:28:36 62° ENE 13:33:51 10° SSE
Ariane H10 4.2 13:12:15 10° WSW 13:30:00 41° S 13:33:39 15° ESE
Meteor 1-21 Rocket 4.2 13:24:23 10° N 13:30:09 70° E 13:35:48 10° SSE
Ariane Rocket 4.3 13:32:38 19° ENE 13:32:38 19° ENE 13:35:46 10° NNE
Cosmos 1825 Rocket 3.5 13:29:24 10° N 13:33:46 88° E 13:38:12 10° S
Cosmos 1953 Rocket 3.6 13:30:00 10° N 13:34:12 51° E 13:38:24 10° SSE
Cosmos 1908 3.1 13:34:41 10° S 13:38:35 85° E 13:42:29 10° N
CZ-2C R/B 4.4 13:36:35 18° NE 13:39:20 32° ESE 13:43:27 10° SSE
Meteor 2-12 Rocket 4.4 13:33:27 10° N 13:39:37 89° W 13:45:46 10° S
EO 1 Delta rocket 4.1 13:36:47 10° SSE 13:42:08 54° E 13:46:43 10° N
NOSS 3-2 (A) 3.1 13:38:10 10° SSW 13:43:36 66° ESE 13:48:41 13° NNE
USA 234 3.8 13:38:26 10° NNE 13:44:49 58° NW 13:51:12 10° SW
Cosmos 1812 Rocket 3.9 13:43:47 10° SSE 13:47:50 38° E 13:48:38 35° ENE
Cosmos 968 Rocket 3.6 13:44:44 10° N 13:49:49 51° ENE 13:54:52 10° SSE
GPS 2-12 Rocket1 4.2 13:46:50 10° WNW 13:50:53 31° N 13:52:27 25° NNE
CZ-4C R/B 3.4 13:45:11 10° N 13:52:47 43° ENE 13:58:04 21° ESE
Cosmos 1339 Rocket 4.5 13:47:07 10° S 13:53:12 82° W 13:59:16 10° N
YAOGAN 6 3.6 13:49:56 10° S 13:53:30 48° W 13:57:04 10° NNW
YAOGAN 1 2.7 13:52:18 10° S 13:56:36 74° WSW 14:00:55 10° NNW
SEDSat Delta rocket 4.4 13:52:53 10° SSW 13:56:40 24° SSE 13:56:40 24° SSE
ARIANE 5 R/B 4.2 13:53:08 10° WSW 13:56:42 45° S 14:03:24 23° ESE
GPS 2-18 Rocket1 3.0 13:52:56 10° WSW 13:56:57 76° SSE 13:57:31 62° E
Cosmos 1503 Rocket 3.9 13:53:52 10° N 13:58:58 63° ENE 14:04:06 10° SSE
CSL-04 Rocket 3.8 13:53:54 10° S 13:59:26 79° WSW 14:04:59 10° NNW
NOAA 11 4.2 13:54:21 10° SSE 13:59:40 53° ENE 14:04:57 10° N
NOSS 3-2 (C) 3.1 13:59:05 10° S 14:04:26 57° ESE 14:05:41 46° ENE
Cosmos 1727 Rocket 3.9 14:03:40 10° S 14:09:54 90° E 14:16:06 10° N
Centaur D-1AR AC-48 3.6 14:09:11 10° W 14:12:47 22° SSW 14:14:21 17° S
Atlas Centaur 2 2.8 14:17:58 10° NW 14:21:48 33° N 14:21:48 33° N
Cosmos 1605 Rocket 3.8 14:18:26 10° N 14:24:34 81° E 14:30:39 10° S
H-II Stage 2 3.8 14:16:22 10° WSW 14:26:30 49° NNW 14:26:40 49° NNW
Hubble Space Telescope 1.8 14:22:46 10° WNW 14:25:52 45° W 14:25:52 45° W
BREEZE-M DEB (TANK) 3.3 14:17:51 10° SW 14:29:50 77° NW 14:30:29 67° N
ARIANE 5 DEB (SYLDA) 4.5 14:34:38 10° WSW 14:42:18 26° SSW 14:43:14 25° S
ATLAS 3B R/B 2.8 14:43:05 10° SSW 14:49:02 68° SSW 14:49:02 68° SSW
Palapa B4 Rocket 4.5 14:44:33 10° WSW 14:54:23 72° SSW 14:54:23 72° SSW
CENTAUR R/B 3.8 15:00:28 10° SW 15:02:51 27° SW 15:02:51 27° SW
ADEOS Rocket 4.1 15:00:15 10° N 15:07:19 48° WNW 15:13:47 10° SSW
ATLAS 5 CENTAUR R/B 4.1 15:27:43 10° WSW 15:36:54 87° NNW 16:40:48 10° ENE
ATLAS 2AS CENTAUR R/B 2.9 22:33:07 73° N 22:33:07 73° N 22:40:19 10° NNE
CZ-2C R/B 3.8 22:34:22 10° NNE 22:39:08 38° E 22:43:48 10° SSE
PAYLOAD A 4.4 22:40:09 10° NNE 22:45:01 60° ESE 22:50:05 10° S
ATLAS 5 CENTAUR R/B 2.6 22:56:16 63° WSW 22:56:20 63° WSW 23:03:23 10° SSE
H-2A R/B 2.9 22:57:57 28° SE 22:57:57 28° SE 22:59:38 10° E
BLOCK DM-SL R/B 3.9 22:57:58 30° SW 23:01:13 45° SSE 23:48:43 10° E
GPS 2-17 Rocket1 3.8 23:02:22 42° NNE 23:02:22 42° NNE 23:05:33 10° ENE
Cosmos 2237 Rocket 2.3 22:56:20 10° S 23:01:56 71° ESE 23:07:34 10° NNE
Cosmos 2263 Rocket 4.3 23:13:39 11° SSW 23:13:39 11° SSW 23:13:57 10° SSW
Cosmos 1455 Rocket 2.9 23:10:47 44° N 23:12:06 86° E 23:16:25 10° S
CZ-4B R/B 4.0 23:09:33 10° NNE 23:13:39 77° ESE 23:17:55 10° S
Cosmos 407 Rocket 3.5 23:09:20 10° S 23:14:33 82° ESE 23:19:42 10° NNE
Cosmos 1544 Rocket 3.7 23:10:50 10° N 23:15:07 70° E 23:19:26 10° S
Delta 7925 Rocket 4.2 23:14:45 39° NW 23:15:25 40° NNW 23:20:19 10° NE
USA 32 4.1 23:10:14 10° S 23:15:26 76° E 23:20:38 10° N
Cosmos 1980 3.5 23:12:42 12° SSW 23:18:01 70° WNW 23:23:39 10° N
Palapa B4 Rocket 3.3 23:18:04 54° WSW 23:19:01 67° SSW 23:25:32 10° ESE
Cosmos 1766 3.2 23:18:28 14° N 23:21:46 83° E 23:25:44 10° S
Cosmos 371 Rocket 4.3 23:26:44 28° SW 23:26:44 28° SW 23:29:40 10° SSW
Milstar 3 3.0 23:23:31 34° W 23:26:28 54° NNW 23:33:06 10° NE
Cosmos 304 Rocket 3.7 23:26:12 10° NNW 23:30:58 90° ENE 23:35:44 10° SSE
Delta 198 4.4 23:27:39 31° WSW 23:30:59 85° NNW 23:37:55 10° ENE
Cosmos 1805 3.2 23:31:58 13° NNW 23:35:19 59° W 23:39:10 10° S
Ariane H10-3 2.1 23:35:04 30° SSW 23:35:29 32° S 23:39:02 10° ESE
Ariane H10 3.0 23:35:02 23° SW 23:36:04 27° S 23:38:25 10° SE
SeaSat 1 3.5 23:33:56 10° NE 23:38:40 48° ESE 23:43:22 10° S
Ariane H10+ 4.2 23:30:09 20° WSW 23:40:52 42° SSW 23:46:44 10° SE
Cosmos 2084 4.4 23:41:18 25° WSW 23:41:18 25° WSW 23:44:23 10° S
Meteor 1-31 Rocket 3.2 23:37:32 10° N 23:41:01 36° WNW 23:44:30 10° SW
Cosmos 1707 2.6 23:38:17 10° S 23:42:10 85° W 23:46:04 10° N
Milstar 3 Cent rocket 2.8 23:40:52 24° WNW 23:43:21 35° NNW 23:47:40 10° NE
NOSS 3-4 (A) 4.2 23:41:49 24° W 23:43:32 28° WNW 23:48:36 10° N
NOSS 3-4 (C) 4.1 23:41:44 24° W 23:43:37 29° WNW 23:48:44 10° N
Cosmos 2074 Rocket 4.0 23:37:53 10° SSW 23:44:01 58° W 23:50:08 10° N
USA 234 4.1 23:39:54 10° ESE 23:46:07 48° NE 23:52:20 10° NNW
SWIFT 2.2 23:46:43 26° WNW 23:49:00 88° NNE 23:53:10 10° ESE
Cosmos 1954 Rocket 4.1 23:44:00 10° S 23:49:17 83° ESE 23:54:33 10° NNE
Cosmos 1470 4.3 23:47:03 10° NNE 23:50:41 38° E 23:54:17 10° SSE
SL-16 R/B 2.6 23:46:22 10° S 23:51:57 68° ESE 23:57:33 10° NNE
